Total_Precipitation_Accumulation
0.53 0.42 0.40 0.23 0.19 0.24 0.12 0.12 0.07 0.10 0.18 0.29 0.21 0.25 0.20 0.27 0.05 0.05 0.05 0.02 0.02 0.02 0.01 0.01 0.01 0.00 0.00 0.00 0.00 0.00 0.00 0.00 0.00 0.01 0.00 0.00 0.00 0.00 0.00 0.00 0.01 0.00 0.00 0.00 0.01 0.01 0.03 0.02 0.00 0.02 0.00 0.00 0.04 0.00 0.00 0.00 0.05 0.03 0.08 0.35 0.01 0.00 0.00 0.00 0.00 0.00 0.00 0.00 0.00 0.00 0.00 0.00 0.00 0.01 0.00 0.00 0.00 0.00 0.00 0.01 0.01 0.07 0.08 0.03 0.05
0.23 0.19 0.14 0.17 0.17 0.11 0.06 0.04 0.04 0.02 0.06 0.13 0.15 0.17 0.09 0.07 0.04 0.06 0.03 0.02 0.01 0.01 0.01 0.02 0.00 0.00 0.00 0.00 0.00 0.00 0.00 0.00 0.00 0.00 0.00 0.00 0.00 0.00 0.00 0.00 0.00 0.00 0.01 0.02 0.03 0.02 0.02 0.01 0.02 0.02 0.02 0.02 0.00 0.02 0.01 0.00 0.02 0.05 0.03 0.03 0.03 0.01 0.00 0.00 0.00 0.00 0.00 0.00 0.00 0.01 0.00 0.00 0.00 0.00 0.00 0.00 0.00 0.00 0.00 0.00 0.00 0.12 0.11 0.03 0.06
0.05 0.09 0.10 0.13 0.17 0.06 0.03 0.02 0.03 0.02 0.04 0.05 0.07 0.05 0.04 0.03 0.04 0.04 0.04 0.02 0.01 0.01 0.02 0.00 0.00 0.00 0.00 0.00 0.00 0.00 0.00 0.01 0.01 0.00 0.00 0.00 0.00 0.00 0.00 0.00 0.01 0.02 0.02 0.03 0.04 0.03 0.03 0.03 0.01 0.00 0.04 0.02 0.00 0.01 0.02 0.01 0.00 0.03 0.02 0.05 0.03 0.04 0.01 0.00 0.00 0.01 0.00 0.00 0.02 0.01 0.01 0.01 0.00 0.00 0.00 0.00 0.01 0.00 0.01 0.01 0.01 0.08 0.03 0.01 0.02
0.04 0.03 0.10 0.17 0.19 0.06 0.04 0.03 0.02 0.02 0.01 0.02 0.02 0.04 0.02 0.02 0.03 0.02 0.01 0.04 0.01 0.01 0.00 0.00 0.00 0.00 0.00 0.00 0.00 0.00 0.01 0.00 0.00 0.00 0.00 0.00 0.00 0.00 0.00 0.00 0.00 0.03 0.01 0.02 0.01 0.01 0.01 0.00 0.01 0.04 0.04 0.02 0.03 0.00 0.02 0.03 0.01 0.05 0.07 0.10 0.05 0.04 0.01 0.01 0.01 0.01 0.02 0.01 0.04 0.01 0.10 0.05 0.05 0.00 0.00 0.00 0.01 0.00 0.02 0.03 0.04 0.06 0.03 0.03 0.02
0.05 0.09 0.14 0.15 0.12 0.05 0.03 0.12 0.09 0.02 0.02 0.01 0.04 0.01 0.01 0.02 0.01 0.02 0.01 0.01 0.02 0.01 0.01 0.01 0.00 0.00 0.00 0.00 0.00 0.00 0.00 0.00 0.00 0.00 0.00 0.00 0.00 0.00 0.00 0.00 0.02 0.01 0.03 0.02 0.00 0.02 0.00 0.02 0.01 0.03 0.03 0.01 0.02 0.02 0.03 0.03 0.01 0.00 0.02 0.06 0.05 0.09 0.09 0.03 0.02 0.08 0.04 0.06 0.05 0.06 0.07 0.05 0.05 0.01 0.01 0.00 0.00 0.01 0.02 0.02 0.04 0.05 0.08 0.06 0.02
0.02 0.04 0.06 0.11 0.03 0.05 0.05 0.04 0.03 0.02 0.04 0.03 0.02 0.02 0.02 0.01 0.01 0.01 0.02 0.02 0.01 0.02 0.01 0.01 0.00 0.00 0.00 0.00 0.00 0.00 0.00 0.00 0.00 0.00 0.00 0.00 0.01 0.00 0.00 0.05 0.01 0.02 0.01 0.01 0.04 0.00 0.01 0.00 0.03 0.00 0.00 0.00 0.06 0.03 0.03 0.01 0.04 0.01 0.00 0.03 0.07 0.09 0.03 0.03 0.02 0.09 0.21 0.07 0.01 0.09 0.04 0.09 0.06 0.05 0.00 0.01 0.00 0.01 0.02 0.04 0.03 0.04 0.06 0.03 0.03
0.04 0.02 0.04 0.09 0.06 0.09 0.03 0.02 0.02 0.02 0.02 0.01 0.01 0.01 0.01 0.01 0.02 0.02 0.02 0.02 0.02 0.02 0.01 0.00 0.00 0.00 0.00 0.00 0.00 0.00 0.00 0.00 0.00 0.00 0.00 0.00 0.00 0.00 0.00 0.03 0.02 0.02 0.02 0.02 0.04 0.01 0.04 0.03 0.01 0.01 0.02 0.00 0.04 0.04 0.02 0.01 0.01 0.00 0.06 0.06 0.00 0.04 0.00 0.01 0.02 0.01 0.13 0.02 0.13 0.14 0.05 0.05 0.05 0.06 0.03 0.01 0.01 0.01 0.00 0.01 0.02 0.04 0.05 0.05 0.03
0.07 0.03 0.03 0.06 0.07 0.03 0.02 0.02 0.02 0.03 0.02 0.02 0.01 0.00 0.01 0.01 0.01 0.01 0.01 0.01 0.02 0.01 0.01 0.01 0.00 0.00 0.00 0.00 0.00 0.00 0.00 0.01 0.00 0.00 0.00 0.00 0.00 0.00 0.02 0.00 0.04 0.02 0.01 0.02 0.01 0.02 0.03 0.03 0.02 0.02 0.01 0.02 0.00 0.06 0.01 0.04 0.04 0.01 0.08 0.10 0.02 0.00 0.01 0.02 0.00 0.04 0.01 0.11 0.08 0.06 0.05 0.05 0.13 0.06 0.04 0.04 0.02 0.00 0.00 0.00 0.00 0.00 0.03 0.03 0.05
0.06 0.08 0.05 0.04 0.07 0.03 0.02 0.03 0.05 0.01 0.01 0.02 0.02 0.01 0.01 0.01 0.02 0.02 0.01 0.01 0.02 0.01 0.00 0.01 0.00 0.00 0.01 0.00 0.01 0.00 0.00 0.01 0.00 0.00 0.00 0.00 0.00 0.00 0.00 0.00 0.05 0.06 0.04 0.02 0.03 0.04 0.05 0.04 0.04 0.00 0.00 0.00 0.03 0.01 0.01 0.01 0.04 0.05 0.04 0.05 0.02 0.02 0.01 0.14 0.02 0.10 0.06 0.13 0.16 0.12 0.04 0.10 0.09 0.02 0.05 0.03 0.01 0.01 0.00 0.02 0.00 0.00 0.01 0.03 0.03
0.05 0.02 0.05 0.06 0.04 0.00 0.04 0.05 0.03 0.02 0.03 0.04 0.02 0.02 0.03 0.05 0.01 0.02 0.00 0.02 0.01 0.02 0.01 0.01 0.01 0.01 0.00 0.00 0.01 0.01 0.01 0.00 0.01 0.01 0.00 0.00 0.00 0.00 0.00 0.04 0.02 0.06 0.01 0.04 0.01 0.03 0.04 0.02 0.02 0.01 0.01 0.03 0.03 0.00 0.00 0.01 0.03 0.06 0.04 0.04 0.06 0.01 0.01 0.01 0.13 0.17 0.14 0.08 0.10 0.02 0.02 0.03 0.04 0.06 0.02 0.03 0.03 0.01 0.02 0.04 0.09 0.09 0.07 0.03 0.01
0.02 0.03 0.06 0.08 0.07 0.00 0.07 0.03 0.23 0.01 0.04 0.04 0.02 0.02 0.01 0.05 0.03 0.02 0.02 0.03 0.00 0.01 0.01 0.01 0.01 0.01 0.01 0.01 0.01 0.00 0.00 0.00 0.00 0.00 0.00 0.00 0.00 0.00 0.01 0.02 0.06 0.05 0.03 0.05 0.01 0.07 0.06 0.05 0.03 0.02 0.00 0.03 0.09 0.01 0.00 0.03 0.00 0.01 0.01 0.02 0.00 0.01 0.04 0.00 0.03 0.28 0.27 0.18 0.09 0.18 0.03 0.00 0.04 0.03 0.02 0.01 0.01 0.01 0.05 0.01 0.02 0.03 0.02 0.01 0.02
0.04 0.03 0.05 0.05 0.01 0.02 0.11 0.11 0.03 0.02 0.06 0.07 0.05 0.05 0.08 0.07 0.03 0.03 0.03 0.01 0.00 0.02 0.02 0.01 0.00 0.01 0.01 0.02 0.02 0.01 0.00 0.00 0.00 0.00 0.00 0.00 0.00 0.00 0.01 0.04 0.07 0.04 0.10 0.09 0.05 0.00 0.03 0.12 0.13 0.06 0.03 0.01 0.00 0.01 0.05 0.11 0.02 0.00 0.01 0.01 0.01 0.00 0.00 0.04 0.16 0.10 0.26 0.21 0.19 0.06 0.07 0.12 0.05 0.03 0.00 0.00 0.01 0.03 0.04 0.04 0.03 0.03 0.01 0.01 0.02
0.03 0.06 0.04 0.01 0.02 0.06 0.13 0.07 0.05 0.05 0.04 0.05 0.04 0.12 0.16 0.12 0.05 0.03 0.02 0.02 0.02 0.00 0.01 0.00 0.01 0.01 0.01 0.01 0.00 0.01 0.01 0.00 0.00 0.00 0.00 0.00 0.00 0.01 0.01 0.04 0.09 0.25 0.18 0.23 0.10 0.14 0.14 0.16 0.23 0.12 0.03 0.02 0.01 0.11 0.01 0.05 0.01 0.05 0.05 0.01 0.02 0.01 0.00 0.01 0.11 0.15 0.14 0.26 0.15 0.14 0.12 0.13 0.10 0.00 0.00 0.00 0.00 0.01 0.02 0.02 0.02 0.03 0.01 0.00 0.01
0.05 0.03 0.02 0.01 0.01 0.03 0.03 0.01 0.05 0.03 0.01 0.03 0.08 0.12 0.20 0.16 0.04 0.02 0.02 0.01 0.01 0.02 0.00 0.00 0.00 0.00 0.01 0.01 0.00 0.00 0.00 0.00 0.00 0.00 0.00 0.00 0.00 0.00 0.01 0.10 0.12 0.12 0.25 0.19 0.24 0.25 0.23 0.32 0.22 0.09 0.07 0.01 0.06 0.07 0.24 0.12 0.04 0.00 0.01 0.00 0.01 0.05 0.05 0.04 0.02 0.25 0.32 0.26 0.26 0.19 0.05 0.14 0.23 0.00 0.01 0.00 0.00 0.01 0.06 0.05 0.04 0.03 0.00 0.01 0.01
0.03 0.01 0.01 0.01 0.01 0.02 0.01 0.03 0.02 0.02 0.01 0.04 0.08 0.06 0.05 0.05 0.01 0.02 0.03 0.04 0.01 0.00 0.02 0.01 0.00 0.00 0.00 0.01 0.01 0.00 0.00 0.00 0.00 0.00 0.00 0.00 0.00 0.00 0.00 0.02 0.01 0.10 0.12 0.18 0.28 0.20 0.27 0.24 0.18 0.01 0.00 0.01 0.05 0.11 0.04 0.09 0.01 0.01 0.00 0.00 0.01 0.02 0.04 0.12 0.20 0.03 0.22 0.23 0.22 0.26 0.15 0.12 0.02 0.00 0.01 0.00 0.00 0.02 0.02 0.04 0.03 0.02 0.01 0.01 0.00
0.00 0.00 0.00 0.01 0.02 0.02 0.01 0.02 0.03 0.05 0.02 0.01 0.03 0.02 0.01 0.01 0.01 0.01 0.01 0.01 0.02 0.02 0.00 0.01 0.01 0.01 0.00 0.01 0.00 0.00 0.00 0.00 0.00 0.00 0.00 0.00 0.00 0.00 0.00 0.00 0.05 0.28 0.30 0.25 0.26 0.43 0.31 0.35 0.26 0.14 0.10 0.17 0.35 0.07 0.09 0.04 0.02 0.00 0.00 0.00 0.00 0.02 0.08 0.08 0.28 0.15 0.12 0.13 0.18 0.24 0.11 0.15 0.00 0.00 0.01 0.00 0.00 0.00 0.01 0.01 0.02 0.04 0.02 0.02 0.03
0.00 0.00 0.01 0.01 0.01 0.01 0.02 0.02 0.04 0.08 0.01 0.05 0.01 0.01 0.02 0.02 0.01 0.01 0.02 0.01 0.02 0.00 0.00 0.00 0.01 0.00 0.01 0.00 0.00 0.00 0.00 0.00 0.00 0.01 0.02 0.00 0.00 0.00 0.00 0.00 0.02 0.15 0.32 0.26 0.37 0.39 0.31 0.37 0.13 0.16 0.10 0.13 0.52 0.44 0.01 0.00 0.03 0.07 0.00 0.00 0.00 0.02 0.07 0.10 0.21 0.05 0.03 0.03 0.07 0.14 0.15 0.23 0.03 0.00 0.00 0.00 0.00 0.00 0.01 0.03 0.05 0.01 0.03 0.01 0.03
0.00 0.00 0.01 0.01 0.01 0.01 0.06 0.05 0.08 0.11 0.05 0.07 0.01 0.02 0.01 0.02 0.02 0.01 0.02 0.01 0.02 0.02 0.02 0.02 0.01 0.01 0.00 0.01 0.00 0.01 0.00 0.00 0.01 0.01 0.00 0.00 0.00 0.00 0.00 0.00 0.01 0.04 0.05 0.30 0.20 0.45 0.55 0.32 0.16 0.04 0.03 0.05 0.28 0.11 0.24 0.07 0.00 0.12 0.01 0.00 0.00 0.00 0.03 0.10 0.13 0.14 0.03 0.02 0.09 0.11 0.18 0.05 0.00 0.00 0.01 0.00 0.00 0.00 0.00 0.01 0.02 0.01 0.01 0.01 0.04
0.02 0.01 0.01 0.00 0.01 0.01 0.02 0.04 0.03 0.04 0.06 0.05 0.06 0.07 0.03 0.03 0.03 0.01 0.01 0.01 0.01 0.02 0.01 0.02 0.00 0.00 0.00 0.00 0.01 0.00 0.02 0.00 0.00 0.00 0.00 0.00 0.00 0.00 0.00 0.00 0.01 0.03 0.02 0.06 0.20 0.43 0.30 0.11 0.04 0.06 0.02 0.02 0.04 0.03 0.01 0.09 0.01 0.01 0.03 0.00 0.00 0.00 0.01 0.31 0.18 0.19 0.26 0.19 0.02 0.13 0.17 0.00 0.00 0.00 0.02 0.00 0.00 0.00 0.00 0.00 0.01 0.00 0.01 0.01 0.01
0.01 0.02 0.02 0.00 0.02 0.01 0.01 0.03 0.02 0.02 0.02 0.02 0.08 0.08 0.02 0.01 0.03 0.00 0.00 0.01 0.01 0.00 0.00 0.00 0.00 0.00 0.00 0.00 0.00 0.01 0.01 0.03 0.00 0.00 0.00 0.00 0.00 0.00 0.00 0.01 0.01 0.01 0.03 0.03 0.05 0.14 0.27 0.07 0.02 0.04 0.03 0.02 0.02 0.02 0.00 0.00 0.00 0.04 0.07 0.02 0.00 0.00 0.17 0.11 0.20 0.26 0.06 0.06 0.11 0.25 0.09 0.00 0.00 0.00 0.01 0.01 0.00 0.00 0.00 0.00 0.00 0.00 0.00 0.02 0.04
0.02 0.02 0.01 0.01 0.01 0.01 0.01 0.01 0.01 0.02 0.01 0.02 0.04 0.07 0.08 0.03 0.01 0.00 0.01 0.01 0.00 0.00 0.00 0.00 0.00 0.00 0.00 0.00 0.00 0.01 0.06 0.08 0.01 0.03 0.00 0.01 0.00 0.00 0.03 0.04 0.03 0.02 0.03 0.02 0.07 0.03 0.06 0.01 0.01 0.03 0.02 0.01 0.01 0.00 0.00 0.00 0.00 0.00 0.02 0.00 0.00 0.11 0.05 0.02 0.01 0.01 0.01 0.19 0.26 0.09 0.01 0.00 0.00 0.00 0.02 0.02 0.00 0.00 0.00 0.00 0.00 0.00 0.00 0.00 0.00
0.03 0.04 0.03 0.02 0.02 0.01 0.01 0.01 0.07 0.06 0.01 0.02 0.03 0.06 0.07 0.05 0.04 0.04 0.02 0.01 0.01 0.00 0.03 0.08 0.00 0.05 0.01 0.01 0.02 0.01 0.10 0.17 0.13 0.04 0.04 0.02 0.05 0.00 0.02 0.07 0.05 0.01 0.01 0.04 0.24 0.04 0.04 0.00 0.00 0.00 0.00 0.00 0.00 0.02 0.01 0.00 0.00 0.00 0.00 0.00 0.03 0.02 0.01 0.00 0.01 0.02 0.01 0.05 0.06 0.05 0.00 0.00 0.00 0.00 0.01 0.01 0.01 0.00 0.00 0.00 0.00 0.00 0.00 0.00 0.00
0.04 0.03 0.02 0.02 0.01 0.01 0.01 0.02 0.03 0.04 0.02 0.01 0.02 0.04 0.03 0.05 0.08 0.04 0.01 0.01 0.01 0.00 0.01 0.02 0.01 0.05 0.02 0.03 0.03 0.04 0.05 0.13 0.10 0.04 0.10 0.02 0.03 0.00 0.00 0.00 0.01 0.01 0.02 0.05 0.04 0.00 0.00 0.01 0.00 0.00 0.00 0.00 0.02 0.00 0.04 0.04 0.06 0.00 0.00 0.03 0.00 0.00 0.00 0.01 0.01 0.04 0.09 0.08 0.01 0.00 0.00 0.00 0.00 0.01 0.03 0.01 0.01 0.02 0.01 0.00 0.00 0.00 0.00 0.00 0.00
0.01 0.02 0.02 0.02 0.01 0.01 0.01 0.01 0.06 0.02 0.02 0.06 0.07 0.04 0.06 0.06 0.09 0.03 0.01 0.01 0.01 0.01 0.01 0.01 0.02 0.04 0.08 0.02 0.03 0.02 0.02 0.04 0.03 0.00 0.00 0.03 0.07 0.00 0.00 0.00 0.00 0.00 0.00 0.01 0.00 0.00 0.00 0.00 0.00 0.00 0.00 0.01 0.01 0.04 0.00 0.00 0.00 0.00 0.00 0.00 0.00 0.00 0.00 0.00 0.01 0.03 0.01 0.15 0.02 0.00 0.00 0.00 0.00 0.01 0.04 0.08 0.02 0.02 0.02 0.03 0.00 0.00 0.00 0.00 0.00
0.01 0.00 0.02 0.03 0.02 0.02 0.01 0.04 0.02 0.01 0.01 0.03 0.02 0.04 0.04 0.03 0.04 0.01 0.04 0.01 0.01 0.01 0.02 0.01 0.01 0.04 0.02 0.03 0.02 0.01 0.01 0.01 0.07 0.01 0.04 0.06 0.06 0.10 0.08 0.07 0.05 0.08 0.00 0.07 0.05 0.06 0.01 0.01 0.01 0.04 0.01 0.02 0.02 0.01 0.00 0.00 0.00 0.00 0.00 0.00 0.00 0.00 0.00 0.00 0.00 0.00 0.00 0.07 0.04 0.00 0.00 0.00 0.00 0.02 0.08 0.06 0.04 0.03 0.01 0.01 0.00 0.00 0.00 0.00 0.00
0.01 0.01 0.01 0.02 0.03 0.02 0.01 0.03 0.02 0.02 0.01 0.03 0.02 0.01 0.02 0.03 0.03 0.01 0.01 0.01 0.01 0.01 0.01 0.01 0.00 0.01 0.00 0.00 0.00 0.00 0.00 0.01 0.01 0.00 0.02 0.03 0.01 0.02 0.03 0.04 0.04 0.04 0.02 0.04 0.03 0.01 0.03 0.01 0.00 0.01 0.02 0.03 0.00 0.00 0.00 0.00 0.00 0.00 0.00 0.00 0.00 0.00 0.00 0.00 0.00 0.01 0.00 0.05 0.04 0.00 0.00 0.00 0.00 0.01 0.05 0.06 0.08 0.02 0.11 0.07 0.05 0.02 0.00 0.00 0.00
0.01 0.00 0.00 0.01 0.01 0.02 0.01 0.03 0.02 0.01 0.01 0.00 0.01 0.02 0.02 0.01 0.01 0.01 0.01 0.01 0.01 0.01 0.00 0.00 0.00 0.00 0.00 0.00 0.01 0.01 0.00 0.01 0.00 0.00 0.00 0.00 0.01 0.03 0.33 0.07 0.10 0.01 0.05 0.03 0.01 0.01 0.00 0.01 0.00 0.00 0.00 0.01 0.00 0.00 0.00 0.00 0.00 0.00 0.00 0.00 0.00 0.00 0.00 0.00 0.00 0.00 0.00 0.00 0.01 0.00 0.00 0.00 0.01 0.01 0.04 0.06 0.11 0.08 0.04 0.15 0.02 0.01 0.01 0.03 0.01
0.00 0.00 0.00 0.00 0.01 0.01 0.01 0.03 0.01 0.01 0.00 0.01 0.01 0.01 0.01 0.01 0.02 0.02 0.01 0.01 0.01 0.04 0.01 0.01 0.00 0.01 0.00 0.00 0.01 0.01 0.00 0.00 0.00 0.00 0.00 0.00 0.01 0.01 0.04 0.01 0.02 0.02 0.00 0.01 0.00 0.00 0.00 0.00 0.01 0.01 0.00 0.01 0.00 0.00 0.00 0.00 0.00 0.00 0.01 0.00 0.01 0.00 0.00 0.00 0.00 0.00 0.00 0.00 0.02 0.01 0.00 0.00 0.00 0.00 0.01 0.02 0.06 0.19 0.29 0.14 0.07 0.02 0.02 0.01 0.05
0.00 0.00 0.00 0.00 0.00 0.01 0.02 0.01 0.01 0.00 0.01 0.01 0.00 0.00 0.00 0.00 0.01 0.01 0.01 0.02 0.01 0.00 0.00 0.01 0.01 0.01 0.03 0.01 0.00 0.01 0.00 0.00 0.00 0.00 0.00 0.03 0.01 0.00 0.01 0.02 0.03 0.00 0.00 0.00 0.00 0.00 0.00 0.00 0.02 0.00 0.02 0.00 0.00 0.01 0.00 0.01 0.01 0.01 0.00 0.00 0.00 0.00 0.00 0.00 0.00 0.00 0.00 0.00 0.00 0.05 0.00 0.00 0.00 0.00 0.00 0.05 0.09 0.12 0.09 0.09 0.05 0.02 0.01 0.04 0.13
0.00 0.00 0.00 0.00 0.00 0.01 0.01 0.00 0.00 0.01 0.01 0.01 0.01 0.01 0.00 0.01 0.00 0.00 0.00 0.01 0.01 0.00 0.01 0.01 0.00 0.01 0.01 0.01 0.01 0.01 0.01 0.00 0.00 0.00 0.01 0.01 0.02 0.03 0.03 0.02 0.04 0.06 0.03 0.03 0.02 0.00 0.00 0.00 0.00 0.00 0.00 0.00 0.00 0.00 0.00 0.01 0.01 0.00 0.00 0.00 0.00 0.00 0.00 0.00 0.00 0.00 0.00 0.00 0.00 0.01 0.00 0.00 0.00 0.00 0.00 0.02 0.04 0.09 0.05 0.05 0.11 0.05 0.02 0.10 0.20
0.00 0.00 0.00 0.00 0.00 0.00 0.01 0.00 0.00 0.00 0.01 0.01 0.00 0.01 0.00 0.01 0.00 0.00 0.00 0.00 0.00 0.00 0.00 0.00 0.00 0.00 0.01 0.00 0.01 0.01 0.00 0.01 0.01 0.02 0.07 0.01 0.01 0.06 0.06 0.09 0.11 0.09 0.03 0.02 0.04 0.00 0.00 0.00 0.00 0.00 0.00 0.00 0.00 0.00 0.00 0.00 0.00 0.00 0.00 0.00 0.00 0.00 0.00 0.00 0.00 0.00 0.00 0.00 0.00 0.00 0.02 0.00 0.00 0.00 0.00 0.01 0.01 0.04 0.08 0.16 0.14 0.04 0.04 0.04 0.16
0.00 0.00 0.00 0.00 0.00 0.00 0.00 0.00 0.00 0.01 0.01 0.00 0.00 0.01 0.01 0.01 0.00 0.00 0.00 0.00 0.00 0.00 0.00 0.00 0.00 0.00 0.00 0.00 0.01 0.00 0.00 0.01 0.01 0.03 0.02 0.01 0.01 0.03 0.08 0.21 0.08 0.09 0.03 0.03 0.04 0.00 0.00 0.00 0.00 0.00 0.00 0.00 0.00 0.00 0.00 0.00 0.00 0.00 0.00 0.00 0.00 0.00 0.00 0.00 0.00 0.00 0.00 0.00 0.00 0.00 0.00 0.03 0.00 0.00 0.00 0.00 0.02 0.13 0.02 0.01 0.03 0.04 0.10 0.11 0.10
0.00 0.00 0.00 0.00 0.00 0.01 0.00 0.01 0.00 0.01 0.00 0.00 0.00 0.00 0.00 0.00 0.00 0.00 0.00 0.00 0.00 0.00 0.00 0.00 0.00 0.00 0.00 0.00 0.01 0.01 0.00 0.00 0.01 0.01 0.06 0.02 0.03 0.02 0.25 0.19 0.11 0.03 0.14 0.05 0.00 0.02 0.01 0.00 0.00 0.00 0.00 0.00 0.01 0.01 0.00 0.01 0.00 0.00 0.00 0.00 0.00 0.00 0.00 0.00 0.00 0.00 0.00 0.00 0.00 0.00 0.00 0.00 0.02 0.00 0.00 0.00 0.01 0.00 0.00 0.00 0.00 0.00 0.01 0.03 0.01
0.00 0.00 0.00 0.00 0.00 0.00 0.00 0.00 0.01 0.01 0.00 0.00 0.00 0.00 0.00 0.00 0.00 0.01 0.00 0.00 0.01 0.00 0.00 0.00 0.00 0.00 0.01 0.01 0.00 0.00 0.00 0.00 0.01 0.01 0.01 0.04 0.08 0.02 0.31 0.08 0.08 0.08 0.04 0.05 0.01 0.06 0.02 0.00 0.00 0.00 0.01 0.00 0.02 0.00 0.00 0.00 0.00 0.00 0.00 0.00 0.00 0.00 0.00 0.00 0.00 0.00 0.00 0.00 0.00 0.00 0.00 0.00 0.00 0.01 0.05 0.00 0.00 0.00 0.00 0.00 0.00 0.00 0.00 0.02 0.04
0.00 0.00 0.00 0.00 0.00 0.00 0.00 0.01 0.01 0.00 0.01 0.00 0.01 0.01 0.00 0.00 0.00 0.01 0.01 0.00 0.01 0.01 0.01 0.01 0.00 0.00 0.01 0.01 0.00 0.01 0.01 0.01 0.00 0.01 0.02 0.05 0.09 0.14 0.10 0.09 0.14 0.05 0.08 0.08 0.05 0.02 0.00 0.00 0.01 0.00 0.01 0.01 0.01 0.01 0.01 0.01 0.00 0.01 0.00 0.00 0.00 0.00 0.00 0.00 0.00 0.00 0.00 0.00 0.00 0.00 0.00 0.00 0.00 0.00 0.00 0.03 0.01 0.00 0.00 0.00 0.00 0.01 0.02 0.01 0.02
0.00 0.00 0.00 0.00 0.00 0.00 0.00 0.00 0.01 0.01 0.00 0.00 0.01 0.00 0.00 0.00 0.01 0.01 0.01 0.01 0.01 0.01 0.01 0.01 0.01 0.00 0.01 0.01 0.01 0.01 0.00 0.01 0.01 0.03 0.02 0.07 0.06 0.07 0.20 0.18 0.06 0.09 0.04 0.08 0.06 0.05 0.01 0.00 0.01 0.01 0.03 0.02 0.01 0.01 0.01 0.01 0.01 0.00 0.00 0.00 0.00 0.00 0.00 0.00 0.00 0.00 0.00 0.00 0.01 0.00 0.00 0.01 0.00 0.00 0.00 0.01 0.03 0.01 0.00 0.00 0.00 0.00 0.02 0.02 0.01
0.00 0.00 0.00 0.00 0.00 0.00 0.00 0.00 0.00 0.00 0.01 0.01 0.01 0.00 0.00 0.01 0.01 0.01 0.01 0.01 0.01 0.01 0.01 0.01 0.01 0.00 0.01 0.01 0.00 0.01 0.02 0.02 0.03 0.03 0.01 0.03 0.03 0.12 0.09 0.08 0.10 0.07 0.04 0.04 0.04 0.04 0.02 0.05 0.02 0.01 0.01 0.01 0.01 0.01 0.01 0.01 0.01 0.00 0.00 0.00 0.00 0.00 0.00 0.00 0.00 0.00 0.00 0.00 0.00 0.02 0.00 0.01 0.00 0.00 0.00 0.00 0.01 0.04 0.01 0.00 0.00 0.00 0.01 0.01 0.03
0.00 0.00 0.00 0.00 0.00 0.00 0.00 0.00 0.00 0.00 0.01 0.00 0.00 0.01 0.00 0.01 0.01 0.01 0.01 0.01 0.01 0.02 0.01 0.01 0.01 0.01 0.01 0.01 0.03 0.02 0.05 0.06 0.03 0.03 0.02 0.01 0.03 0.08 0.05 0.02 0.03 0.01 0.03 0.04 0.03 0.02 0.02 0.02 0.03 0.02 0.01 0.01 0.01 0.01 0.01 0.01 0.00 0.00 0.00 0.00 0.00 0.00 0.00 0.00 0.00 0.00 0.00 0.00 0.01 0.00 0.00 0.01 0.02 0.02 0.02 0.01 0.02 0.03 0.06 0.02 0.00 0.00 0.00 0.00 0.00
0.00 0.00 0.00 0.00 0.00 0.00 0.00 0.00 0.00 0.00 0.01 0.01 0.01 0.01 0.01 0.02 0.06 0.02 0.01 0.02 0.01 0.01 0.01 0.01 0.04 0.01 0.02 0.11 0.15 0.10 0.08 0.14 0.02 0.03 0.03 0.05 0.08 0.05 0.03 0.02 0.02 0.02 0.01 0.03 0.04 0.04 0.03 0.01 0.01 0.01 0.01 0.01 0.01 0.01 0.01 0.01 0.00 0.01 0.00 0.00 0.00 0.00 0.00 0.00 0.00 0.00 0.00 0.00 0.00 0.00 0.00 0.00 0.00 0.01 0.03 0.02 0.01 0.02 0.05 0.09 0.06 0.10 0.06 0.00 0.00
0.00 0.00 0.00 0.00 0.00 0.00 0.00 0.00 0.00 0.00 0.01 0.01 0.01 0.02 0.02 0.02 0.04 0.02 0.02 0.01 0.01 0.01 0.02 0.01 0.04 0.10 0.08 0.04 0.15 0.07 0.04 0.09 0.04 0.03 0.02 0.06 0.03 0.03 0.01 0.01 0.02 0.02 0.03 0.04 0.05 0.02 0.01 0.01 0.01 0.01 0.01 0.01 0.01 0.00 0.01 0.01 0.00 0.00 0.00 0.00 0.00 0.00 0.00 0.00 0.00 0.00 0.00 0.00 0.00 0.00 0.00 0.00 0.00 0.00 0.00 0.00 0.00 0.01 0.05 0.09 0.12 0.15 0.08 0.04 0.00
0.00 0.00 0.00 0.00 0.00 0.00 0.00 0.01 0.01 0.01 0.01 0.02 0.03 0.02 0.01 0.02 0.02 0.02 0.05 0.04 0.02 0.01 0.02 0.01 0.01 0.01 0.01 0.02 0.04 0.17 0.10 0.05 0.03 0.05 0.09 0.07 0.04 0.05 0.03 0.02 0.02 0.01 0.04 0.06 0.00 0.00 0.00 0.01 0.00 0.01 0.01 0.00 0.00 0.00 0.01 0.01 0.01 0.00 0.00 0.00 0.00 0.00 0.00 0.00 0.00 0.00 0.00 0.00 0.00 0.00 0.00 0.00 0.00 0.00 0.00 0.00 0.00 0.00 0.00 0.00 0.01 0.02 0.06 0.09 0.09
0.00 0.00 0.00 0.00 0.00 0.00 0.00 0.00 0.00 0.01 0.01 0.01 0.01 0.01 0.01 0.01 0.01 0.02 0.01 0.05 0.06 0.05 0.09 0.01 0.01 0.01 0.02 0.02 0.04 0.04 0.03 0.02 0.04 0.03 0.04 0.02 0.04 0.03 0.05 0.06 0.03 0.11 0.03 0.01 0.00 0.00 0.00 0.01 0.01 0.01 0.01 0.00 0.00 0.00 0.01 0.01 0.02 0.01 0.00 0.00 0.00 0.00 0.00 0.00 0.00 0.00 0.00 0.00 0.00 0.00 0.00 0.00 0.00 0.00 0.00 0.00 0.00 0.00 0.00 0.00 0.00 0.00 0.01 0.01 0.03
0.00 0.00 0.00 0.00 0.00 0.00 0.00 0.00 0.00 0.01 0.01 0.00 0.01 0.01 0.01 0.01 0.04 0.03 0.02 0.03 0.05 0.07 0.09 0.06 0.17 0.05 0.06 0.07 0.03 0.06 0.03 0.02 0.03 0.01 0.01 0.01 0.02 0.04 0.06 0.10 0.07 0.02 0.01 0.00 0.00 0.00 0.00 0.01 0.02 0.01 0.00 0.01 0.00 0.01 0.02 0.01 0.00 0.00 0.00 0.00 0.00 0.00 0.07 0.00 0.00 0.00 0.00 0.00 0.00 0.00 0.00 0.00 0.00 0.00 0.00 0.00 0.00 0.00 0.00 0.00 0.00 0.00 0.00 0.00 0.00
0.00 0.00 0.00 0.00 0.00 0.01 0.00 0.01 0.00 0.00 0.01 0.00 0.00 0.01 0.01 0.01 0.01 0.02 0.10 0.06 0.10 0.07 0.21 0.09 0.04 0.02 0.04 0.02 0.04 0.03 0.01 0.03 0.03 0.02 0.01 0.03 0.03 0.06 0.11 0.03 0.01 0.01 0.01 0.00 0.00 0.00 0.00 0.02 0.03 0.03 0.02 0.01 0.00 0.01 0.01 0.01 0.00 0.00 0.00 0.00 0.00 0.00 0.00 0.01 0.00 0.00 0.00 0.00 0.00 0.00 0.00 0.00 0.00 0.00 0.00 0.00 0.00 0.00 0.00 0.00 0.00 0.00 0.00 0.00 0.00
0.00 0.00 0.00 0.00 0.00 0.00 0.00 0.00 0.00 0.00 0.00 0.00 0.01 0.01 0.01 0.01 0.01 0.02 0.08 0.06 0.04 0.06 0.05 0.06 0.05 0.06 0.08 0.04 0.06 0.05 0.03 0.04 0.04 0.03 0.05 0.02 0.05 0.02 0.01 0.01 0.00 0.01 0.01 0.01 0.01 0.01 0.02 0.04 0.05 0.06 0.07 0.02 0.00 0.01 0.02 0.01 0.00 0.01 0.00 0.00 0.00 0.00 0.00 0.01 0.00 0.01 0.00 0.00 0.00 0.00 0.00 0.00 0.00 0.00 0.00 0.00 0.00 0.00 0.00 0.00 0.00 0.00 0.00 0.00 0.00
0.00 0.00 0.00 0.00 0.00 0.00 0.00 0.00 0.01 0.01 0.01 0.01 0.01 0.01 0.03 0.05 0.11 0.14 0.09 0.03 0.04 0.04 0.04 0.02 0.03 0.03 0.02 0.02 0.04 0.05 0.03 0.03 0.02 0.02 0.01 0.02 0.02 0.01 0.00 0.00 0.00 0.00 0.00 0.00 0.01 0.02 0.04 0.04 0.03 0.05 0.05 0.05 0.03 0.00 0.01 0.02 0.01 0.01 0.01 0.00 0.00 0.00 0.01 0.03 0.00 0.10 0.00 0.00 0.00 0.00 0.00 0.00 0.00 0.00 0.00 0.00 0.00 0.00 0.00 0.00 0.00 0.00 0.00 0.00 0.00
0.00 0.00 0.00 0.00 0.00 0.00 0.00 0.00 0.01 0.01 0.01 0.01 0.02 0.03 0.04 0.10 0.05 0.15 0.02 0.02 0.02 0.01 0.00 0.02 0.01 0.02 0.01 0.01 0.02 0.01 0.02 0.02 0.02 0.01 0.03 0.02 0.01 0.00 0.00 0.00 0.00 0.00 0.00 0.00 0.01 0.01 0.04 0.04 0.02 0.02 0.02 0.02 0.01 0.00 0.00 0.01 0.01 0.00 0.01 0.01 0.01 0.03 0.04 0.01 0.02 0.00 0.01 0.00 0.00 0.00 0.00 0.00 0.00 0.00 0.00 0.00 0.00 0.00 0.00 0.00 0.00 0.00 0.00 0.00 0.00
0.00 0.00 0.00 0.00 0.00 0.00 0.00 0.00 0.00 0.00 0.00 0.00 0.02 0.14 0.05 0.02 0.03 0.02 0.03 0.02 0.01 0.00 0.01 0.01 0.00 0.02 0.01 0.01 0.00 0.01 0.02 0.02 0.01 0.01 0.02 0.01 0.00 0.01 0.00 0.00 0.00 0.00 0.00 0.01 0.04 0.04 0.04 0.03 0.03 0.02 0.03 0.02 0.02 0.01 0.01 0.01 0.01 0.03 0.02 0.04 0.03 0.02 0.01 0.01 0.00 0.00 0.00 0.00 0.00 0.00 0.00 0.00 0.00 0.00 0.00 0.00 0.00 0.00 0.00 0.00 0.00 0.00 0.00 0.00 0.00
0.00 0.00 0.00 0.00 0.00 0.00 0.00 0.00 0.00 0.00 0.00 0.00 0.00 0.02 0.04 0.02 0.01 0.01 0.02 0.01 0.00 0.00 0.01 0.01 0.01 0.01 0.01 0.01 0.00 0.01 0.01 0.02 0.02 0.02 0.01 0.01 0.01 0.00 0.00 0.00 0.00 0.00 0.00 0.00 0.00 0.00 0.01 0.01 0.03 0.01 0.01 0.01 0.00 0.00 0.01 0.02 0.01 0.03 0.05 0.07 0.02 0.01 0.00 0.00 0.00 0.00 0.00 0.00 0.00 0.00 0.00 0.00 0.00 0.00 0.00 0.00 0.00 0.00 0.00 0.00 0.00 0.00 0.00 0.00 0.00
0.00 0.00 0.00 0.00 0.00 0.00 0.00 0.00 0.00 0.00 0.00 0.00 0.00 0.00 0.01 0.02 0.01 0.01 0.01 0.01 0.00 0.00 0.00 0.01 0.01 0.01 0.01 0.00 0.00 0.00 0.00 0.01 0.01 0.01 0.02 0.00 0.00 0.00 0.00 0.00 0.00 0.00 0.00 0.00 0.00 0.00 0.00 0.00 0.00 0.00 0.00 0.00 0.00 0.01 0.01 0.01 0.01 0.02 0.01 0.05 0.02 0.00 0.00 0.00 0.00 0.00 0.01 0.00 0.00 0.00 0.00 0.00 0.00 0.00 0.00 0.00 0.00 0.00 0.00 0.00 0.00 0.00 0.00 0.00 0.00
0.00 0.00 0.00 0.00 0.00 0.00 0.00 0.00 0.00 0.00 0.00 0.00 0.00 0.00 0.00 0.01 0.01 0.00 0.01 0.01 0.01 0.01 0.01 0.01 0.01 0.01 0.01 0.01 0.00 0.00 0.00 0.00 0.00 0.00 0.00 0.00 0.00 0.00 0.00 0.00 0.00 0.00 0.00 0.00 0.00 0.00 0.00 0.00 0.00 0.00 0.00 0.00 0.00 0.00 0.00 0.00 0.01 0.02 0.01 0.01 0.00 0.00 0.00 0.00 0.00 0.00 0.00 0.00 0.00 0.00 0.00 0.00 0.00 0.00 0.00 0.00 0.00 0.00 0.00 0.00 0.00 0.00 0.00 0.00 0.00